カタログに戻る

ONEWEB-0056

運用中通信PO
NORAD 45159·PAYLOAD·🇬🇧 United Kingdom

打ち上げ Feb 6, 2020 から Baikonur Cosmodrome

Loading…

次のパス (今後24時間)

TLE

最新Source: CelesTrak SupGP

元期: Sep 14, 2026, 17:18 UTC

1 45159C 20008AE  26257.72098796  .00003212  00000+0  92120-2 0  2574
2 45159  87.8926  18.4394 0001490 105.0232   5.2728 13.10375916    13

AllMySatでONEWEB-0056をリアルタイム追跡

Download on the App Store